Lexington Weather

Lexington, Massachusetts, USA

69°F
8/17/2022 7:24pm 
  • Lexington Conditions: Overcast
  • Temperature: 69.4°F / 20.8°CColder 0.6°F than last hour.
  • Dew Point: 57.2°FDecreased 1.8°Fsince last hour.
  • Relative Humidity: 65%Decreased 3.0% since last hour.
  • Wind: Calm, 10-min avg: Calm, gust: None
  • Barometer: 29.84 in Steady
  • Visibility: 10 miles
  • Rain Today: 0.00 in
  •   

Regional Weather Roundup
for Boston, MA

        
000
ASUS41 KBOX 110910
RWRBOX

REGIONAL WEATHER ROUNDUP
NATIONAL WEATHER SERVICE BOSTON/NORTON MA
500 AM EDT THU AUG 11 2022

NOTE:  "FAIR" INDICATES FEW OR NO CLOUDS BELOW 12,000 FEET WITH NO 
SIGNIFICANT WEATHER AND/OR OBSTRUCTIONS TO VISIBILITY.

MAZALL-111000-
EASTERN MASSACHUSETTS
  
CITY           SKY/WX    TMP DP  RH WIND       PRES   REMARKS
BOSTON         CLOUDY    66  64  93 E3        29.94F                  
BEVERLY        CLOUDY    67  64  90 SE3       29.93F                  
LAWRENCE       CLOUDY    68  64  87 CALM      29.95F                  
BEDFORD        CLOUDY    68  65  90 CALM      29.93F                  
BLUE HILL      NOT AVBL                                               
NORWOOD        FOG       64  62  93 CALM      29.93F VSB 3/4          
MARSHFIELD     CLOUDY    68  66  94 CALM      29.93F                  
PLYMOUTH       PTCLDY    67  65  93 CALM      29.94F                  
TAUNTON        CLOUDY    69  66  90 SE3       29.93F                  
NEW BEDFORD    CLEAR     65  65 100 CALM      29.93F FOG              
$$

MAZALL-111000-
CAPE COD AND THE ISLANDS
  
CITY           SKY/WX    TMP DP  RH WIND       PRES   REMARKS
FALMOUTH       NOT AVBL                                               
HYANNIS        CLOUDY    70  66  87 CALM      29.93F                  
CHATHAM        MOCLDY    69  65  86 SE3       29.95F                  
NANTUCKET      CLOUDY    71  67  87 E5        29.94F                  
MARTHAS VNYRD  CLOUDY    66  65  96 CALM      29.94F                  
$$
 
MAZALL-111000-
CENTRAL AND WESTERN MASSACHUSETTS
  
CITY           SKY/WX    TMP DP  RH WIND       PRES   REMARKS
WORCESTER      FOG       65  64  97 W6        29.96F VSB 1/2          
FITCHBURG      NOT AVBL                                               
ORANGE         CLOUDY    64  62  93 CALM      29.95F                  
SPRINGFIELD    CLOUDY    62  61  96 E3        29.91F                  
WESTFIELD      PTCLDY    63  60  90 CALM      29.93F                  
NORTH ADAMS    CLEAR     62  60  93 CALM      29.96F                  
PITTSFIELD     CLEAR     59  57  93 CALM      29.96F                  
$$
 
RIZALL-111000-
RHODE ISLAND
  
CITY           SKY/WX    TMP DP  RH WIND       PRES   REMARKS
PROVIDENCE     CLEAR     70  68  93 SW3       29.94F                  
NEWPORT        CLEAR     69  69 100 S5        29.94F                  
BLOCK ISLAND   CLOUDY    70  68  93 SE6       29.94F                  
SMITHFIELD     MOCLDY    67  67 100 CALM      29.95F FOG              
WESTERLY       MOCLDY    71  69  93 CALM      29.93F                  
$$
 
CTZALL-111000-
CONNECTICUT
  
CITY           SKY/WX    TMP DP  RH WIND       PRES   REMARKS
BRADLEY INTL   MOCLDY    67  61  81 CALM      29.93F                  
HARTFORD       MOCLDY    72  68  87 SE3       29.92S                  
BRIDGEPORT     CLOUDY    75  72  90 E3        29.91F                  
DANBURY        MOCLDY    70  61  73 E3        29.94F                  
GROTON         CLOUDY    73  69  87 SE7       29.92F                  
NEW HAVEN      CLOUDY    75  72  90 E6        29.92F                  
CHESTER        CLOUDY    72  72 100 CALM      29.94F                  
MERIDEN        CLOUDY    72  69  90 CALM      29.92F                  
WILLIMANTIC    CLOUDY    69  68  96 CALM      29.94F                  
OXFORD         CLOUDY    70  70 100 CALM      29.95F                  
$$

MEZ002-015-021-024-NHZ003-005-008-011-012-014-VTZ005-008-111000-
NORTHERN NEW ENGLAND
  
CITY           SKY/WX    TMP DP  RH WIND       PRES   REMARKS
PORTLAND ME    MOCLDY    61  60  97 CALM      29.94F                  
BANGOR ME      CLOUDY    65  61  87 S3        29.95F                  
CONCORD NH     MOCLDY    61  60  97 CALM      29.95F                  
MANCHESTER NH  MOCLDY    65  61  87 CALM      29.92F                  
NASHUA NH      MOCLDY    65  65 100 CALM      29.94F                  
PORTSMOUTH NH  CLOUDY    65  63  92 CALM      29.93F                  
JAFFREY NH     CLOUDY    65  62  90 CALM      29.96F                  
KEENE NH       PTCLDY    64  63  96 CALM        N/A                   
BURLINGTON VT  CLEAR     62  60  93 CALM      29.93F                  
MT. WASHINGTON MOCLDY    50  41  71 N10         N/A                   
$$

NYZ052-076-111000-
EASTERN NEW YORK
  
CITY           SKY/WX    TMP DP  RH WIND       PRES   REMARKS
ALBANY         MOCLDY    66  59  78 CALM      29.94F                  
NEW YORK CITY  MOCLDY    75  70  84 NE8       29.90F                  
$$
 
ANZALL-111000-
MARINE OBSERVATIONS
  
STATION/POSITION TIME  TEMP    WIND        PRES    VSBY  WAVE
                       AIR SEA DIR/SP/G                  HT/PER
                 (UTC) (F)     (DEG/KT/KT) (MB)    (MI)  (FT/S)
BOSTON BUOY      NOT AVBL
BUZZARDS BAY     NOT AVBL
NANTUCKET SOUND  NOT AVBL
MASS BAY-STELLWA NOT AVBL
ISLE OF SHOALS   NOT AVBL
S OF BLOCK IS    NOT AVBL
$$

......................KEY.........................
  SKY/WX - SKY CONDITION/PRESENT WEATHER
  TMP    - TEMPERATURE IN FAHRENHEIT
  DWPT   - DEWPOINT IN FAHRENHEIT
  RH     - RELATIVE HUMIDITY IN PERCENT
  WIND   - DIRECTION AND SPEED IN MPH
  PRES   - MEAN SEA LEVEL PRESSURE IN INCHES OF HG
  WCI    - WIND CHILL INDEX
  VSB    - VISIBILITY IN MILES
  HX     - HEAT INDEX
  TC     - TEMPERATURE IN CELSIUS
  VRB    - VARIABLE WIND DIRECTION
  N/A    - NOT AVAILABLE
  
      

Other recent Regional Weather Roundups

Wed Aug 17, 7:10pm

Wed Aug 17, 6:10pm

Wed Aug 17, 5:10pm

Wed Aug 17, 4:10pm

Wed Aug 17, 3:10pm

Wed Aug 17, 2:10pm

Wed Aug 17, 1:10pm

Wed Aug 17, 12:10pm

Wed Aug 17, 11:10am

Wed Aug 17, 10:10am

Wed Aug 17, 9:10am

Wed Aug 17, 8:10am

Wed Aug 17, 7:10am

Wed Aug 17, 6:10am

Wed Aug 17, 5:10am

Wed Aug 17, 4:10am

Wed Aug 17, 3:10am

Wed Aug 17, 2:10am

Wed Aug 17, 1:10am

Wed Aug 17, 12:10am

Tue Aug 16, 11:10pm

Tue Aug 16, 10:10pm

Tue Aug 16, 9:10pm

Tue Aug 16, 8:10pm

Tue Aug 16, 7:10pm

Tue Aug 16, 6:10pm

Tue Aug 16, 5:10pm

Tue Aug 16, 4:10pm

Tue Aug 16, 3:10pm

Tue Aug 16, 2:10pm

Tue Aug 16, 1:10pm

Tue Aug 16, 12:10pm

Tue Aug 16, 11:10am

Tue Aug 16, 10:10am

Tue Aug 16, 9:10am

Tue Aug 16, 8:10am

Tue Aug 16, 7:10am

Tue Aug 16, 6:10am

Tue Aug 16, 5:10am

Tue Aug 16, 4:10am

Tue Aug 16, 3:10am

Tue Aug 16, 2:10am

Tue Aug 16, 1:10am

Tue Aug 16, 12:10am

Mon Aug 15, 11:10pm

Mon Aug 15, 10:10pm

Mon Aug 15, 9:10pm

Mon Aug 15, 8:10pm

Mon Aug 15, 7:10pm

Mon Aug 15, 6:10pm

Mon Aug 15, 5:10pm

Mon Aug 15, 4:10pm

Mon Aug 15, 3:10pm

Mon Aug 15, 2:10pm

Mon Aug 15, 1:10pm

Mon Aug 15, 12:10pm

Mon Aug 15, 11:10am

Mon Aug 15, 10:10am

Mon Aug 15, 9:10am

Mon Aug 15, 8:10am

Mon Aug 15, 7:10am

Mon Aug 15, 6:10am

Mon Aug 15, 5:10am

Mon Aug 15, 4:10am

Mon Aug 15, 3:10am

Mon Aug 15, 2:10am

Mon Aug 15, 1:10am

Mon Aug 15, 12:10am

Sun Aug 14, 11:10pm

Sun Aug 14, 10:10pm

Sun Aug 14, 9:10pm

Sun Aug 14, 8:10pm

Sun Aug 14, 7:10pm

Sun Aug 14, 6:10pm

Sun Aug 14, 5:10pm

Sun Aug 14, 4:10pm

Sun Aug 14, 3:10pm

Sun Aug 14, 2:10pm

Sun Aug 14, 1:10pm

Sun Aug 14, 12:10pm

Sun Aug 14, 11:10am

Sun Aug 14, 10:10am

Sun Aug 14, 9:10am

Sun Aug 14, 8:10am

Sun Aug 14, 7:10am

Sun Aug 14, 6:10am

Sun Aug 14, 5:10am

Sun Aug 14, 4:10am

Sun Aug 14, 3:10am

Sun Aug 14, 2:10am

Sun Aug 14, 1:10am

Sun Aug 14, 12:10am

Sat Aug 13, 11:10pm

Sat Aug 13, 10:10pm

Sat Aug 13, 9:10pm

Sat Aug 13, 8:10pm

Sat Aug 13, 7:10pm

Sat Aug 13, 6:10pm

Sat Aug 13, 5:10pm

Sat Aug 13, 4:10pm

Sat Aug 13, 3:10pm

Sat Aug 13, 2:10pm

Sat Aug 13, 1:10pm

Sat Aug 13, 12:10pm

Sat Aug 13, 11:10am

Sat Aug 13, 10:10am

Sat Aug 13, 9:10am

Sat Aug 13, 8:10am

Sat Aug 13, 7:10am

Sat Aug 13, 6:10am

Sat Aug 13, 5:10am

Sat Aug 13, 4:10am

Sat Aug 13, 3:10am

Sat Aug 13, 2:10am

Sat Aug 13, 1:10am

Sat Aug 13, 12:10am

Fri Aug 12, 11:10pm

Fri Aug 12, 10:10pm

Fri Aug 12, 9:10pm

Fri Aug 12, 8:10pm

Fri Aug 12, 7:10pm

Fri Aug 12, 6:10pm

Fri Aug 12, 5:10pm

Fri Aug 12, 4:10pm

Fri Aug 12, 3:10pm

Fri Aug 12, 2:10pm

Fri Aug 12, 1:10pm

Fri Aug 12, 12:10pm

Fri Aug 12, 11:10am

Fri Aug 12, 10:10am

Fri Aug 12, 9:10am

Fri Aug 12, 8:10am

Fri Aug 12, 7:10am

Fri Aug 12, 6:10am

Fri Aug 12, 5:10am

Fri Aug 12, 4:10am

Fri Aug 12, 3:10am

Fri Aug 12, 2:10am

Fri Aug 12, 1:10am

Fri Aug 12, 12:10am

Thu Aug 11, 11:10pm

Thu Aug 11, 10:10pm

Thu Aug 11, 9:10pm

Thu Aug 11, 8:10pm

Thu Aug 11, 7:10pm

Thu Aug 11, 6:10pm

Thu Aug 11, 5:10pm

Thu Aug 11, 4:10pm

Thu Aug 11, 3:10pm

Thu Aug 11, 2:10pm

Thu Aug 11, 1:10pm

Thu Aug 11, 12:10pm

Thu Aug 11, 11:10am

Thu Aug 11, 10:10am

Thu Aug 11, 9:10am

Thu Aug 11, 8:10am

Thu Aug 11, 7:10am

Thu Aug 11, 6:10am

Thu Aug 11, 4:10am

Thu Aug 11, 3:10am

Thu Aug 11, 2:10am

Thu Aug 11, 1:10am

Thu Aug 11, 12:10am

Wed Aug 10, 11:10pm

Wed Aug 10, 10:10pm

Wed Aug 10, 9:10pm

Wed Aug 10, 8:10pm

Meta data:

ID: c9c57eed-92ed-4fbe-bc11-68ee5e6baa3c
Link: https://api.weather.gov/products/c9c57eed-92ed-4fbe-bc11-68ee5e6baa3c